星链-36885(STARLINK-36885)

导读

STARLINK-36885(NORAD编号68049)是SpaceX星链星座中的低轨通信卫星,属于第三代星链卫星梯队。它依托星链成熟的氩气离子推进系统与双太阳能供电方案,可实现灵活轨道机动与可靠运行,配备相控阵天线实现高速低轨宽带传输。作为SpaceX近万颗星链卫星之一,它原运行于约550公里近地轨道,纳入2026年SpaceX轨道调整计划,将降至480公里以提升太空安全性,降低碰撞风险,共同支撑全球无缝覆盖的卫星互联网服务。

基本信息
目录编号:
68049
目录名称:
STARLINK-36885
国际标识:
2026-041K
轨道中心:
EARTH
卫星名称:
星链-36885
卫星全名:
星链-36885(STARLINK-36885)
卫星状态:
在轨 (已飞行148 天)
发射日期:
2026-03-02 UTC
国别 :
美国 (US)
星等 :
--
轨道信息
数据来源 国际轨道数据 AOE轨道数据
星历时间 2026-07-27T08:36:45+0800
1天前
查看轨道信息
2026-07-21T18:00:00+0800
6天前
查看轨道信息
半长轴 6840.83km 6840.912km
偏心率 0.0001257 0.0001275
轨道倾角 53.159° 53.156°
近地点辐角 78.386° 92.467°
升交点赤经 118.965° 145.187°
平近点角 281.728° 228.138°
近地点 461.833km 461.902km
远地点 463.553km 463.648km
周期 93.848分钟 93.849分钟
每日圈数 15.344037 15.343761
详细信息
固有亮度:
5
最大亮度:
2.5
卫星平台:
Starlink V1.0
覆盖范围:
全球
运营商:
太空探索技术公司
运营商所在国:
美国
制造商(研发单位):
太空探索技术公司
制造商所在国:
美国
使用方式:
暂无
卫星简介
Starlink 计划是 SpaceX 推出的全球卫星互联网项目,通过发射低轨道卫星,为全球尤其是偏远地区提供高速、低延迟的互联网服务。自 2019 年起,Starlink 已部署数千颗卫星,旨在缩小全球数字鸿沟,推动互联网普及。该项目还为军事、航空等行业提供通信支持,带来广泛经济效益。
2D轨道图
3D轨道图
轨道高度分析图
轨道倾角分析图
轨道综合分析图
查看轨道综合分析图